Volver al catálogo

FREGAT DEB

LostUNKNOWN
NORAD 45879·DEBRIS·🇷🇺 Russia

Lanzado Jul 18, 2011 desde Baikonur Cosmodrome

Loading…

Próximos Pases (próximas 24 horas)

TLE

ObsoletoSource: Space-Track

Época: Feb 7, 2026, 09:54 UTC

1 45879U 11037CY  26038.41302199  .00158123  00000-0  24740+0 0  9999
2 45879  50.4684  34.4845 1080565  66.9721 304.1315 12.14416118133773

Sigue FREGAT DEB en tiempo real con AllMySat

Download on the App Store